Time,TemperatureF,DewpointF,PressureIn,WindDirection,WindDirectionDegrees,WindSpeedMPH,WindSpeedGustMPH,Humidity,HourlyPrecipIn,Conditions,Clouds,dailyrainin,SoftwareType,DateUTC
2013-05-25 00:05:00,42.2,38.0,30.34,NW,313,0.0,-999.0,87,-99.99,,,0.00,ADS-WS1 bash script,2013-05-25 04:05:00,
2013-05-25 00:10:00,42.0,38.0,30.34,NW,313,0.0,-999.0,87,-99.99,,,0.00,ADS-WS1 bash script,2013-05-25 04:10:00,
2013-05-25 00:15:00,42.0,38.0,30.34,East,81,0.0,-999.0,87,-99.99,,,0.00,ADS-WS1 bash script,2013-05-25 04:15:00,
2013-05-25 00:20:00,42.0,38.0,30.34,East,80,2.0,-999.0,87,-99.99,,,0.00,ADS-WS1 bash script,2013-05-25 04:20:00,
2013-05-25 00:25:00,42.4,38.0,30.35,East,81,0.0,-999.0,87,-99.99,,,0.00,ADS-WS1 bash script,2013-05-25 04:25:00,
2013-05-25 00:30:00,42.2,38.0,30.34,ESE,108,1.0,-999.0,87,-99.99,,,0.00,ADS-WS1 bash script,2013-05-25 04:30:00,
2013-05-25 00:35:00,42.0,38.0,30.34,NE,43,0.0,-999.0,87,-99.99,,,0.00,ADS-WS1 bash script,2013-05-25 04:35:00,
2013-05-25 00:45:00,41.8,38.0,30.35,NE,43,0.0,-999.0,87,-99.99,,,0.00,ADS-WS1 bash script,2013-05-25 04:45:00,
2013-05-25 00:50:00,41.7,38.0,30.34,North,0,0.0,-999.0,88,-99.99,,,0.00,ADS-WS1 bash script,2013-05-25 04:50:00,
2013-05-25 00:55:00,41.7,39.0,30.35,North,0,0.0,-999.0,89,-99.99,,,0.00,ADS-WS1 bash script,2013-05-25 04:55:00,
2013-05-25 01:00:00,41.5,38.0,30.35,NW,313,0.0,-999.0,88,-99.99,,,0.00,ADS-WS1 bash script,2013-05-25 05:00:00,
2013-05-25 01:05:00,41.5,39.0,30.35,NE,43,0.0,-999.0,89,-99.99,,,0.00,ADS-WS1 bash script,2013-05-25 05:05:00,
2013-05-25 01:10:00,41.1,37.0,30.35,North,0,0.0,-999.0,88,-99.99,,,0.00,ADS-WS1 bash script,2013-05-25 05:10:00,
2013-05-25 01:15:00,40.9,38.0,30.35,NNW,347,0.0,-999.0,89,-99.99,,,0.00,ADS-WS1 bash script,2013-05-25 05:15:00,
2013-05-25 01:20:00,40.9,38.0,30.35,NW,324,0.0,-999.0,89,-99.99,,,0.00,ADS-WS1 bash script,2013-05-25 05:20:00,
2013-05-25 01:30:00,40.6,38.0,30.35,NE,43,0.0,-999.0,90,-99.99,,,0.00,ADS-WS1 bash script,2013-05-25 05:30:00,
2013-05-25 01:35:00,40.8,38.0,30.35,North,0,0.0,-999.0,90,-99.99,,,0.00,ADS-WS1 bash script,2013-05-25 05:35:00,
2013-05-25 01:40:00,40.6,38.0,30.34,East,88,0.0,-999.0,90,-99.99,,,0.00,ADS-WS1 bash script,2013-05-25 05:40:00,
2013-05-25 01:50:00,40.4,37.0,30.35,East,88,0.0,-999.0,90,-99.99,,,0.00,ADS-WS1 bash script,2013-05-25 05:50:00,
2013-05-25 01:55:00,40.4,37.0,30.34,SE,134,0.0,-999.0,90,-99.99,,,0.00,ADS-WS1 bash script,2013-05-25 05:55:00,
2013-05-25 02:05:00,40.2,37.0,30.35,North,0,0.0,-999.0,90,-99.99,,,0.00,ADS-WS1 bash script,2013-05-25 06:05:00,
2013-05-25 02:10:00,40.0,37.0,30.36,NW,313,0.0,-999.0,90,-99.99,,,0.00,ADS-WS1 bash script,2013-05-25 06:10:00,
2013-05-25 02:15:00,39.9,37.0,30.35,NW,313,0.0,-999.0,90,-99.99,,,0.00,ADS-WS1 bash script,2013-05-25 06:15:00,
2013-05-25 02:20:00,39.7,37.0,30.35,North,0,0.0,-999.0,90,-99.99,,,0.00,ADS-WS1 bash script,2013-05-25 06:20:00,
2013-05-25 02:25:00,39.5,37.0,30.35,NW,304,0.0,-999.0,90,-99.99,,,0.00,ADS-WS1 bash script,2013-05-25 06:25:00,
2013-05-25 02:30:00,39.3,36.0,30.35,NW,313,0.0,-999.0,90,-99.99,,,0.00,ADS-WS1 bash script,2013-05-25 06:30:00,
2013-05-25 02:35:00,39.3,36.0,30.35,West,268,0.0,-999.0,91,-99.99,,,0.00,ADS-WS1 bash script,2013-05-25 06:35:00,
2013-05-25 02:40:00,39.3,36.0,30.35,NW,313,0.0,-999.0,90,-99.99,,,0.00,ADS-WS1 bash script,2013-05-25 06:40:00,
2013-05-25 02:45:00,39.1,36.0,30.35,NW,313,0.0,-999.0,91,-99.99,,,0.00,ADS-WS1 bash script,2013-05-25 06:45:00,
2013-05-25 02:50:00,39.0,36.0,30.35,NW,313,0.0,-999.0,91,-99.99,,,0.00,ADS-WS1 bash script,2013-05-25 06:50:00,
2013-05-25 03:00:00,38.8,36.0,30.35,NW,313,0.0,-999.0,91,-99.99,,,0.00,ADS-WS1 bash script,2013-05-25 07:00:00,
2013-05-25 03:05:00,38.8,37.0,30.35,NW,313,0.0,-999.0,92,-99.99,,,0.00,ADS-WS1 bash script,2013-05-25 07:05:00,
2013-05-25 03:10:00,38.6,37.0,30.35,NW,313,0.0,-999.0,92,-99.99,,,0.00,ADS-WS1 bash script,2013-05-25 07:10:00,
2013-05-25 03:15:00,38.4,36.0,30.35,NW,313,0.0,-999.0,92,-99.99,,,0.00,ADS-WS1 bash script,2013-05-25 07:15:00,
2013-05-25 03:20:00,38.2,36.0,30.35,North,0,0.0,-999.0,92,-99.99,,,0.00,ADS-WS1 bash script,2013-05-25 07:20:00,
2013-05-25 03:30:00,38.2,36.0,30.35,NW,313,0.0,-999.0,92,-99.99,,,0.00,ADS-WS1 bash script,2013-05-25 07:30:00,
2013-05-25 03:35:00,38.1,36.0,30.35,NW,313,0.0,-999.0,93,-99.99,,,0.00,ADS-WS1 bash script,2013-05-25 07:35:00,
2013-05-25 03:45:00,37.9,36.0,30.35,NW,313,0.0,-999.0,93,-99.99,,,0.00,ADS-WS1 bash script,2013-05-25 07:45:00,
2013-05-25 03:50:00,37.7,36.0,30.35,NW,313,0.0,-999.0,93,-99.99,,,0.00,ADS-WS1 bash script,2013-05-25 07:50:00,
2013-05-25 03:55:00,37.5,36.0,30.36,NW,313,0.0,-999.0,93,-99.99,,,0.00,ADS-WS1 bash script,2013-05-25 07:55:00,
2013-05-25 04:00:00,37.3,35.0,30.35,NW,313,0.0,-999.0,93,-99.99,,,0.00,ADS-WS1 bash script,2013-05-25 08:00:00,
2013-05-25 04:05:00,37.3,35.0,30.36,NW,313,0.0,-999.0,93,-99.99,,,0.00,ADS-WS1 bash script,2013-05-25 08:05:00,
2013-05-25 04:10:00,37.2,35.0,30.35,NW,313,0.0,-999.0,93,-99.99,,,0.00,ADS-WS1 bash script,2013-05-25 08:10:00,
2013-05-25 04:20:00,37.0,35.0,30.36,NW,313,0.0,-999.0,93,-99.99,,,0.00,ADS-WS1 bash script,2013-05-25 08:20:00,
2013-05-25 04:30:00,36.8,35.0,30.36,NW,313,0.0,-999.0,94,-99.99,,,0.00,ADS-WS1 bash script,2013-05-25 08:30:00,
2013-05-25 04:35:00,37.0,35.0,30.35,NW,313,0.0,-999.0,94,-99.99,,,0.00,ADS-WS1 bash script,2013-05-25 08:35:00,
2013-05-25 04:40:00,37.0,35.0,30.35,NW,313,0.0,-999.0,93,-99.99,,,0.00,ADS-WS1 bash script,2013-05-25 08:40:00,
2013-05-25 04:50:00,36.6,35.0,30.35,West,268,0.0,-999.0,93,-99.99,,,0.00,ADS-WS1 bash script,2013-05-25 08:50:00,
2013-05-25 05:00:00,36.8,35.0,30.35,NW,313,0.0,-999.0,94,-99.99,,,0.00,ADS-WS1 bash script,2013-05-25 09:00:00,
2013-05-25 05:05:00,36.4,34.0,30.35,NE,43,0.0,-999.0,94,-99.99,,,0.00,ADS-WS1 bash script,2013-05-25 09:05:00,
2013-05-25 05:10:00,36.4,34.0,30.35,NNW,348,0.0,-999.0,94,-99.99,,,0.00,ADS-WS1 bash script,2013-05-25 09:10:00,
2013-05-25 05:15:00,36.4,34.0,30.35,NNW,344,0.0,-999.0,94,-99.99,,,0.00,ADS-WS1 bash script,2013-05-25 09:15:00,
2013-05-25 05:20:00,36.3,34.0,30.35,North,0,0.0,-999.0,94,-99.99,,,0.00,ADS-WS1 bash script,2013-05-25 09:20:00,
2013-05-25 05:30:00,36.1,34.0,30.34,NW,313,0.0,-999.0,94,-99.99,,,0.00,ADS-WS1 bash script,2013-05-25 09:30:00,
2013-05-25 05:35:00,36.1,34.0,30.35,West,268,0.0,-999.0,94,-99.99,,,0.00,ADS-WS1 bash script,2013-05-25 09:35:00,
2013-05-25 05:40:00,36.1,34.0,30.35,NW,309,0.0,-999.0,94,-99.99,,,0.00,ADS-WS1 bash script,2013-05-25 09:40:00,
2013-05-25 05:45:00,35.9,35.0,30.34,NE,43,1.0,-999.0,95,-99.99,,,0.00,ADS-WS1 bash script,2013-05-25 09:45:00,
2013-05-25 05:50:00,35.9,34.0,30.35,North,0,0.0,-999.0,94,-99.99,,,0.00,ADS-WS1 bash script,2013-05-25 09:50:00,
2013-05-25 05:55:00,35.9,35.0,30.35,NW,313,0.0,-999.0,95,-99.99,,,0.00,ADS-WS1 bash script,2013-05-25 09:55:00,
2013-05-25 06:00:00,35.9,34.0,30.34,NW,313,0.0,-999.0,94,-99.99,,,0.00,ADS-WS1 bash script,2013-05-25 10:00:00,
2013-05-25 06:05:00,35.7,35.0,30.35,North,0,0.0,-999.0,95,-99.99,,,0.00,ADS-WS1 bash script,2013-05-25 10:05:00,
2013-05-25 06:15:00,35.7,35.0,30.35,NW,313,0.0,-999.0,95,-99.99,,,0.00,ADS-WS1 bash script,2013-05-25 10:15:00,
2013-05-25 06:20:00,35.7,35.0,30.35,NW,313,0.0,-999.0,95,-99.99,,,0.00,ADS-WS1 bash script,2013-05-25 10:20:00,
2013-05-25 06:25:00,35.7,35.0,30.35,NW,313,0.0,-999.0,95,-99.99,,,0.00,ADS-WS1 bash script,2013-05-25 10:25:00,
2013-05-25 06:35:00,35.7,35.0,30.35,North,351,0.0,-999.0,95,-99.99,,,0.00,ADS-WS1 bash script,2013-05-25 10:35:00,
2013-05-25 06:45:00,36.1,35.0,30.34,West,268,0.0,-999.0,95,-99.99,,,0.00,ADS-WS1 bash script,2013-05-25 10:45:00,
2013-05-25 06:50:00,36.3,35.0,30.34,West,268,0.0,-999.0,95,-99.99,,,0.00,ADS-WS1 bash script,2013-05-25 10:50:00,
2013-05-25 06:55:00,36.6,36.0,30.35,West,268,0.0,-999.0,96,-99.99,,,0.00,ADS-WS1 bash script,2013-05-25 10:55:00,
2013-05-25 07:00:00,37.2,36.0,30.35,NNW,335,0.0,-999.0,96,-99.99,,,0.00,ADS-WS1 bash script,2013-05-25 11:00:00,
2013-05-25 07:05:00,37.5,37.0,30.35,NNW,347,0.0,-999.0,96,-99.99,,,0.00,ADS-WS1 bash script,2013-05-25 11:05:00,
2013-05-25 07:10:00,38.2,37.0,30.35,North,354,1.0,-999.0,96,-99.99,,,0.00,ADS-WS1 bash script,2013-05-25 11:10:00,
2013-05-25 07:15:00,38.8,38.0,30.35,North,350,0.0,-999.0,96,-99.99,,,0.00,ADS-WS1 bash script,2013-05-25 11:15:00,
2013-05-25 07:20:00,39.3,38.0,30.35,NNW,335,0.0,-999.0,96,-99.99,,,0.00,ADS-WS1 bash script,2013-05-25 11:20:00,
2013-05-25 07:25:00,39.7,39.0,30.36,NNW,335,0.0,-999.0,95,-99.99,,,0.00,ADS-WS1 bash script,2013-05-25 11:25:00,
2013-05-25 07:30:00,40.2,38.0,30.36,NW,313,0.0,-999.0,94,-99.99,,,0.00,ADS-WS1 bash script,2013-05-25 11:30:00,
2013-05-25 07:35:00,40.6,39.0,30.36,NNW,347,1.0,-999.0,94,-99.99,,,0.00,ADS-WS1 bash script,2013-05-25 11:35:00,
2013-05-25 07:45:00,41.8,39.0,30.37,NNW,335,0.0,-999.0,90,-99.99,,,0.00,ADS-WS1 bash script,2013-05-25 11:45:00,
2013-05-25 07:50:00,42.4,38.0,30.36,North,350,0.0,-999.0,88,-99.99,,,0.00,ADS-WS1 bash script,2013-05-25 11:50:00,
2013-05-25 07:55:00,42.7,38.0,30.37,North,0,0.0,-999.0,85,-99.99,,,0.00,ADS-WS1 bash script,2013-05-25 11:55:00,
2013-05-25 08:00:00,43.3,36.0,30.37,ENE,77,0.0,-999.0,80,-99.99,,,0.00,ADS-WS1 bash script,2013-05-25 12:00:00,
2013-05-25 08:05:00,43.6,36.0,30.37,East,84,0.0,-999.0,77,-99.99,,,0.00,ADS-WS1 bash script,2013-05-25 12:05:00,
2013-05-25 08:15:00,44.7,36.0,30.38,NE,46,0.0,-999.0,73,-99.99,,,0.00,ADS-WS1 bash script,2013-05-25 12:15:00,
2013-05-25 08:20:00,45.1,35.0,30.38,East,84,0.0,-999.0,70,-99.99,,,0.00,ADS-WS1 bash script,2013-05-25 12:20:00,
2013-05-25 08:25:00,45.4,35.0,30.39,NW,313,0.0,-999.0,70,-99.99,,,0.00,ADS-WS1 bash script,2013-05-25 12:25:00,
2013-05-25 08:35:00,46.9,36.0,30.40,NE,43,1.0,-999.0,67,-99.99,,,0.00,ADS-WS1 bash script,2013-05-25 12:35:00,
2013-05-25 08:40:00,47.4,36.0,30.40,ESE,107,0.0,-999.0,67,-99.99,,,0.00,ADS-WS1 bash script,2013-05-25 12:40:00,
2013-05-25 08:45:00,48.3,37.0,30.40,NE,43,1.0,-999.0,68,-99.99,,,0.00,ADS-WS1 bash script,2013-05-25 12:45:00,
2013-05-25 08:50:00,48.1,36.0,30.39,NNE,32,1.0,-999.0,64,-99.99,,,0.00,ADS-WS1 bash script,2013-05-25 12:50:00,
2013-05-25 08:55:00,48.3,36.0,30.40,East,84,0.0,-999.0,64,-99.99,,,0.00,ADS-WS1 bash script,2013-05-25 12:55:00,
2013-05-25 09:00:00,48.8,35.0,30.39,SE,134,1.0,-999.0,60,-99.99,,,0.00,ADS-WS1 bash script,2013-05-25 13:00:00,
2013-05-25 09:05:00,49.2,34.0,30.39,East,84,2.0,-999.0,58,-99.99,,,0.00,ADS-WS1 bash script,2013-05-25 13:05:00,
2013-05-25 09:10:00,49.4,34.0,30.40,NE,36,0.0,-999.0,57,-99.99,,,0.00,ADS-WS1 bash script,2013-05-25 13:10:00,
2013-05-25 09:20:00,50.5,35.0,30.40,NE,43,0.0,-999.0,56,-99.99,,,0.00,ADS-WS1 bash script,2013-05-25 13:20:00,
2013-05-25 09:25:00,50.6,35.0,30.40,North,350,1.0,-999.0,53,-99.99,,,0.00,ADS-WS1 bash script,2013-05-25 13:25:00,
2013-05-25 09:30:00,51.7,35.0,30.40,North,9,2.0,-999.0,51,-99.99,,,0.00,ADS-WS1 bash script,2013-05-25 13:30:00,
2013-05-25 09:35:00,52.6,35.0,30.40,ESE,114,1.0,-999.0,50,-99.99,,,0.00,ADS-WS1 bash script,2013-05-25 13:35:00,
2013-05-25 09:40:00,53.3,35.0,30.40,East,91,0.0,-999.0,50,-99.99,,,0.00,ADS-WS1 bash script,2013-05-25 13:40:00,
2013-05-25 09:45:00,53.9,35.0,30.40,ESE,111,2.0,-999.0,46,-99.99,,,0.00,ADS-WS1 bash script,2013-05-25 13:45:00,
2013-05-25 09:50:00,54.4,35.0,30.40,SE,134,1.0,-999.0,47,-99.99,,,0.00,ADS-WS1 bash script,2013-05-25 13:50:00,
2013-05-25 10:00:00,55.1,36.0,30.40,NW,304,0.0,-999.0,47,-99.99,,,0.00,ADS-WS1 bash script,2013-05-25 14:00:00,
2013-05-25 10:05:00,55.0,35.0,30.40,SE,134,2.0,-999.0,44,-99.99,,,0.00,ADS-WS1 bash script,2013-05-25 14:05:00,
2013-05-25 10:15:00,55.3,36.0,30.39,East,94,1.0,-999.0,47,-99.99,,,0.00,ADS-WS1 bash script,2013-05-25 14:15:00,
2013-05-25 10:20:00,56.4,37.0,30.39,NW,313,0.0,-999.0,46,-99.99,,,0.00,ADS-WS1 bash script,2013-05-25 14:20:00,
2013-05-25 10:30:00,57.6,38.0,30.39,NW,313,0.0,-999.0,44,-99.99,,,0.00,ADS-WS1 bash script,2013-05-25 14:30:00,
2013-05-25 10:35:00,57.3,37.0,30.38,NNW,337,2.0,-999.0,43,-99.99,,,0.00,ADS-WS1 bash script,2013-05-25 14:35:00,
2013-05-25 10:40:00,58.2,38.0,30.38,SE,146,3.0,-999.0,43,-99.99,,,0.00,ADS-WS1 bash script,2013-05-25 14:40:00,
2013-05-25 10:45:00,58.0,38.0,30.38,ESE,104,2.0,-999.0,43,-99.99,,,0.00,ADS-WS1 bash script,2013-05-25 14:45:00,
2013-05-25 10:50:00,56.7,37.0,30.38,North,0,2.0,-999.0,43,-99.99,,,0.00,ADS-WS1 bash script,2013-05-25 14:50:00,
2013-05-25 11:00:00,57.6,38.0,30.38,South,179,2.0,-999.0,43,-99.99,,,0.00,ADS-WS1 bash script,2013-05-25 15:00:00,
2013-05-25 11:05:00,58.7,39.0,30.38,East,88,2.0,-999.0,42,-99.99,,,0.00,ADS-WS1 bash script,2013-05-25 15:05:00,
2013-05-25 11:10:00,59.1,39.0,30.38,North,0,2.0,-999.0,43,-99.99,,,0.00,ADS-WS1 bash script,2013-05-25 15:10:00,
2013-05-25 11:15:00,58.7,39.0,30.38,WSW,256,0.0,-999.0,43,-99.99,,,0.00,ADS-WS1 bash script,2013-05-25 15:15:00,
2013-05-25 11:20:00,59.3,39.0,30.38,NW,313,0.0,-999.0,44,-99.99,,,0.00,ADS-WS1 bash script,2013-05-25 15:20:00,
2013-05-25 11:30:00,60.7,41.0,30.37,SE,134,0.0,-999.0,44,-99.99,,,0.00,ADS-WS1 bash script,2013-05-25 15:30:00,
2013-05-25 11:40:00,60.9,41.0,30.38,NE,43,2.0,-999.0,44,-99.99,,,0.00,ADS-WS1 bash script,2013-05-25 15:40:00,
2013-05-25 11:50:00,59.3,38.0,30.37,NNE,32,2.0,-999.0,39,-99.99,,,0.00,ADS-WS1 bash script,2013-05-25 15:50:00,
2013-05-25 11:55:00,59.6,39.0,30.38,SE,134,3.0,-999.0,39,-99.99,,,0.00,ADS-WS1 bash script,2013-05-25 15:55:00,
2013-05-25 12:05:00,59.6,38.0,30.38,NE,43,0.0,-999.0,38,-99.99,,,0.00,ADS-WS1 bash script,2013-05-25 16:05:00,
2013-05-25 12:10:00,61.2,40.0,30.37,NE,55,7.0,-999.0,40,-99.99,,,0.00,ADS-WS1 bash script,2013-05-25 16:10:00,
2013-05-25 12:15:00,61.1,40.0,30.38,NW,313,2.0,-999.0,39,-99.99,,,0.00,ADS-WS1 bash script,2013-05-25 16:15:00,
2013-05-25 12:25:00,62.0,41.0,30.37,NW,313,4.0,-999.0,39,-99.99,,,0.00,ADS-WS1 bash script,2013-05-25 16:25:00,
2013-05-25 12:30:00,62.3,41.0,30.37,West,268,4.0,-999.0,39,-99.99,,,0.00,ADS-WS1 bash script,2013-05-25 16:30:00,
2013-05-25 12:35:00,63.0,41.0,30.37,NNE,29,4.0,-999.0,37,-99.99,,,0.00,ADS-WS1 bash script,2013-05-25 16:35:00,
2013-05-25 12:40:00,61.4,40.0,30.37,NE,36,2.0,-999.0,39,-99.99,,,0.00,ADS-WS1 bash script,2013-05-25 16:40:00,
2013-05-25 12:45:00,62.7,41.0,30.37,East,88,2.0,-999.0,37,-99.99,,,0.00,ADS-WS1 bash script,2013-05-25 16:45:00,
2013-05-25 12:50:00,63.2,42.0,30.36,SE,141,2.0,-999.0,41,-99.99,,,0.00,ADS-WS1 bash script,2013-05-25 16:50:00,
2013-05-25 13:00:00,63.9,43.0,30.36,WSW,254,1.0,-999.0,39,-99.99,,,0.00,ADS-WS1 bash script,2013-05-25 17:00:00,
2013-05-25 13:05:00,64.3,42.0,30.36,NW,313,2.0,-999.0,37,-99.99,,,0.00,ADS-WS1 bash script,2013-05-25 17:05:00,
2013-05-25 13:10:00,64.5,42.0,30.36,WNW,290,1.0,-999.0,38,-99.99,,,0.00,ADS-WS1 bash script,2013-05-25 17:10:00,
2013-05-25 13:15:00,63.9,42.0,30.35,East,83,1.0,-999.0,38,-99.99,,,0.00,ADS-WS1 bash script,2013-05-25 17:15:00,
2013-05-25 13:20:00,62.7,40.0,30.36,North,5,6.0,-999.0,35,-99.99,,,0.00,ADS-WS1 bash script,2013-05-25 17:20:00,
2013-05-25 13:25:00,63.8,42.0,30.35,NW,313,2.0,-999.0,37,-99.99,,,0.00,ADS-WS1 bash script,2013-05-25 17:25:00,
2013-05-25 13:30:00,63.6,41.0,30.35,NE,39,3.0,-999.0,34,-99.99,,,0.00,ADS-WS1 bash script,2013-05-25 17:30:00,
2013-05-25 13:35:00,64.8,43.0,30.35,NNE,29,5.0,-999.0,38,-99.99,,,0.00,ADS-WS1 bash script,2013-05-25 17:35:00,
2013-05-25 13:40:00,63.9,41.0,30.35,NE,43,2.0,-999.0,36,-99.99,,,0.00,ADS-WS1 bash script,2013-05-25 17:40:00,
2013-05-25 13:50:00,64.5,41.0,30.34,NNE,16,0.0,-999.0,36,-99.99,,,0.00,ADS-WS1 bash script,2013-05-25 17:50:00,
2013-05-25 13:55:00,64.5,41.0,30.34,WSW,251,2.0,-999.0,34,-99.99,,,0.00,ADS-WS1 bash script,2013-05-25 17:55:00,
2013-05-25 14:00:00,64.5,43.0,30.34,North,11,2.0,-999.0,40,-99.99,,,0.00,ADS-WS1 bash script,2013-05-25 18:00:00,
2013-05-25 14:10:00,64.8,42.0,30.34,North,354,0.0,-999.0,34,-99.99,,,0.00,ADS-WS1 bash script,2013-05-25 18:10:00,
2013-05-25 14:15:00,64.8,42.0,30.34,NNE,14,1.0,-999.0,35,-99.99,,,0.00,ADS-WS1 bash script,2013-05-25 18:15:00,
2013-05-25 14:20:00,64.7,42.0,30.34,East,88,4.0,-999.0,34,-99.99,,,0.00,ADS-WS1 bash script,2013-05-25 18:20:00,
2013-05-25 14:25:00,65.4,42.0,30.34,NE,49,2.0,-999.0,36,-99.99,,,0.00,ADS-WS1 bash script,2013-05-25 18:25:00,
2013-05-25 14:30:00,66.1,43.0,30.34,West,278,1.0,-999.0,36,-99.99,,,0.00,ADS-WS1 bash script,2013-05-25 18:30:00,
2013-05-25 14:35:00,65.7,43.0,30.34,NE,43,3.0,-999.0,34,-99.99,,,0.00,ADS-WS1 bash script,2013-05-25 18:35:00,
2013-05-25 14:45:00,65.2,41.0,30.33,NNW,347,5.0,-999.0,33,-99.99,,,0.00,ADS-WS1 bash script,2013-05-25 18:45:00,
2013-05-25 14:50:00,67.0,44.0,30.33,NNW,335,2.0,-999.0,34,-99.99,,,0.00,ADS-WS1 bash script,2013-05-25 18:50:00,
2013-05-25 14:55:00,67.0,43.0,30.33,West,271,2.0,-999.0,33,-99.99,,,0.00,ADS-WS1 bash script,2013-05-25 18:55:00,
2013-05-25 15:00:00,66.6,44.0,30.33,South,173,2.0,-999.0,34,-99.99,,,0.00,ADS-WS1 bash script,2013-05-25 19:00:00,
2013-05-25 15:05:00,67.0,44.0,30.32,NE,35,1.0,-999.0,34,-99.99,,,0.00,ADS-WS1 bash script,2013-05-25 19:05:00,
2013-05-25 15:10:00,67.3,44.0,30.32,WNW,283,0.0,-999.0,34,-99.99,,,0.00,ADS-WS1 bash script,2013-05-25 19:10:00,
2013-05-25 15:15:00,67.7,44.0,30.32,NE,39,2.0,-999.0,31,-99.99,,,0.00,ADS-WS1 bash script,2013-05-25 19:15:00,
2013-05-25 15:20:00,66.1,43.0,30.32,NE,53,4.0,-999.0,35,-99.99,,,0.00,ADS-WS1 bash script,2013-05-25 19:20:00,
2013-05-25 15:25:00,67.0,44.0,30.31,SE,134,5.0,-999.0,36,-99.99,,,0.00,ADS-WS1 bash script,2013-05-25 19:25:00,
2013-05-25 15:35:00,66.6,43.0,30.31,West,268,3.0,-999.0,33,-99.99,,,0.00,ADS-WS1 bash script,2013-05-25 19:35:00,
2013-05-25 15:40:00,65.7,42.0,30.31,East,80,3.0,-999.0,32,-99.99,,,0.00,ADS-WS1 bash script,2013-05-25 19:40:00,
2013-05-25 15:45:00,66.1,42.0,30.30,NNW,335,2.0,-999.0,33,-99.99,,,0.00,ADS-WS1 bash script,2013-05-25 19:45:00,
2013-05-25 15:50:00,65.4,42.0,30.30,North,5,4.0,-999.0,34,-99.99,,,0.00,ADS-WS1 bash script,2013-05-25 19:50:00,
2013-05-25 15:55:00,65.4,42.0,30.31,NE,36,4.0,-999.0,36,-99.99,,,0.00,ADS-WS1 bash script,2013-05-25 19:55:00,
2013-05-25 16:00:00,66.1,43.0,30.31,NNE,21,2.0,-999.0,34,-99.99,,,0.00,ADS-WS1 bash script,2013-05-25 20:00:00,
2013-05-25 16:10:00,67.3,43.0,30.30,ESE,111,1.0,-999.0,32,-99.99,,,0.00,ADS-WS1 bash script,2013-05-25 20:10:00,
2013-05-25 16:20:00,68.1,44.0,30.30,NE,46,5.0,-999.0,33,-99.99,,,0.00,ADS-WS1 bash script,2013-05-25 20:20:00,
2013-05-25 16:25:00,69.0,45.0,30.30,WNW,282,5.0,-999.0,32,-99.99,,,0.00,ADS-WS1 bash script,2013-05-25 20:25:00,
2013-05-25 16:35:00,67.3,43.0,30.30,NW,313,7.0,-999.0,32,-99.99,,,0.00,ADS-WS1 bash script,2013-05-25 20:35:00,
2013-05-25 16:40:00,66.5,41.0,30.30,NNW,335,2.0,-999.0,29,-99.99,,,0.00,ADS-WS1 bash script,2013-05-25 20:40:00,
2013-05-25 16:50:00,66.5,42.0,30.30,WNW,290,2.0,-999.0,33,-99.99,,,0.00,ADS-WS1 bash script,2013-05-25 20:50:00,
2013-05-25 16:55:00,66.8,43.0,30.30,NE,43,6.0,-999.0,33,-99.99,,,0.00,ADS-WS1 bash script,2013-05-25 20:55:00,
2013-05-25 17:05:00,66.6,44.0,30.30,NNE,21,2.0,-999.0,34,-99.99,,,0.00,ADS-WS1 bash script,2013-05-25 21:05:00,
2013-05-25 17:15:00,66.1,42.0,30.29,SW,220,1.0,-999.0,33,-99.99,,,0.00,ADS-WS1 bash script,2013-05-25 21:15:00,
2013-05-25 17:20:00,65.9,42.0,30.29,North,354,5.0,-999.0,33,-99.99,,,0.00,ADS-WS1 bash script,2013-05-25 21:20:00,
2013-05-25 17:25:00,65.7,43.0,30.29,NW,326,2.0,-999.0,34,-99.99,,,0.00,ADS-WS1 bash script,2013-05-25 21:25:00,
2013-05-25 17:30:00,65.4,42.0,30.29,East,88,3.0,-999.0,34,-99.99,,,0.00,ADS-WS1 bash script,2013-05-25 21:30:00,
2013-05-25 17:35:00,65.6,43.0,30.29,NE,36,6.0,-999.0,34,-99.99,,,0.00,ADS-WS1 bash script,2013-05-25 21:35:00,
2013-05-25 17:45:00,65.2,42.0,30.28,North,2,2.0,-999.0,34,-99.99,,,0.00,ADS-WS1 bash script,2013-05-25 21:45:00,
2013-05-25 17:50:00,65.2,41.0,30.28,South,184,2.0,-999.0,33,-99.99,,,0.00,ADS-WS1 bash script,2013-05-25 21:50:00,
2013-05-25 17:55:00,65.9,42.0,30.28,NE,39,1.0,-999.0,33,-99.99,,,0.00,ADS-WS1 bash script,2013-05-25 21:55:00,
2013-05-25 18:00:00,65.6,42.0,30.29,NNE,26,2.0,-999.0,33,-99.99,,,0.00,ADS-WS1 bash script,2013-05-25 22:00:00,
2013-05-25 18:05:00,65.6,44.0,30.28,NE,43,2.0,-999.0,37,-99.99,,,0.00,ADS-WS1 bash script,2013-05-25 22:05:00,
2013-05-25 18:10:00,65.9,43.0,30.28,NE,56,3.0,-999.0,34,-99.99,,,0.00,ADS-WS1 bash script,2013-05-25 22:10:00,
2013-05-25 18:15:00,67.0,44.0,30.28,WSW,248,0.0,-999.0,34,-99.99,,,0.00,ADS-WS1 bash script,2013-05-25 22:15:00,
2013-05-25 18:20:00,67.0,43.0,30.28,NNE,19,4.0,-999.0,31,-99.99,,,0.00,ADS-WS1 bash script,2013-05-25 22:20:00,
2013-05-25 18:30:00,66.1,42.0,30.28,NNE,15,3.0,-999.0,32,-99.99,,,0.00,ADS-WS1 bash script,2013-05-25 22:30:00,
2013-05-25 18:35:00,66.3,43.0,30.28,NE,50,1.0,-999.0,34,-99.99,,,0.00,ADS-WS1 bash script,2013-05-25 22:35:00,
2013-05-25 18:40:00,65.4,41.0,30.28,NNW,345,3.0,-999.0,33,-99.99,,,0.00,ADS-WS1 bash script,2013-05-25 22:40:00,
2013-05-25 18:45:00,65.4,42.0,30.28,NW,313,2.0,-999.0,35,-99.99,,,0.00,ADS-WS1 bash script,2013-05-25 22:45:00,
2013-05-25 18:50:00,65.4,42.0,30.28,NE,43,1.0,-999.0,36,-99.99,,,0.00,ADS-WS1 bash script,2013-05-25 22:50:00,
2013-05-25 18:55:00,64.8,42.0,30.28,NW,323,5.0,-999.0,34,-99.99,,,0.00,ADS-WS1 bash script,2013-05-25 22:55:00,
2013-05-25 19:00:00,64.5,40.0,30.28,North,0,3.0,-999.0,33,-99.99,,,0.00,ADS-WS1 bash script,2013-05-25 23:00:00,
2013-05-25 19:05:00,64.3,41.0,30.27,NE,50,3.0,-999.0,34,-99.99,,,0.00,ADS-WS1 bash script,2013-05-25 23:05:00,
2013-05-25 19:10:00,64.5,41.0,30.28,NNW,330,1.0,-999.0,36,-99.99,,,0.00,ADS-WS1 bash script,2013-05-25 23:10:00,
2013-05-25 19:15:00,64.5,42.0,30.28,NE,43,2.0,-999.0,37,-99.99,,,0.00,ADS-WS1 bash script,2013-05-25 23:15:00,
2013-05-25 19:20:00,63.9,42.0,30.28,NE,36,3.0,-999.0,38,-99.99,,,0.00,ADS-WS1 bash script,2013-05-25 23:20:00,
2013-05-25 19:25:00,63.4,41.0,30.28,North,0,1.0,-999.0,38,-99.99,,,0.00,ADS-WS1 bash script,2013-05-25 23:25:00,
2013-05-25 19:30:00,63.0,42.0,30.28,NNE,21,1.0,-999.0,40,-99.99,,,0.00,ADS-WS1 bash script,2013-05-25 23:30:00,
2013-05-25 19:35:00,62.5,41.0,30.28,NE,43,4.0,-999.0,40,-99.99,,,0.00,ADS-WS1 bash script,2013-05-25 23:35:00,
2013-05-25 19:40:00,62.3,41.0,30.28,NNE,21,4.0,-999.0,40,-99.99,,,0.00,ADS-WS1 bash script,2013-05-25 23:40:00,
2013-05-25 19:50:00,62.0,41.0,30.29,NW,313,1.0,-999.0,41,-99.99,,,0.00,ADS-WS1 bash script,2013-05-25 23:50:00,
2013-05-25 20:00:00,61.4,41.0,30.29,NE,36,4.0,-999.0,42,-99.99,,,0.00,ADS-WS1 bash script,2013-05-26 00:00:00,
2013-05-25 20:10:00,61.1,41.0,30.28,NE,43,5.0,-999.0,42,-99.99,,,1.00,ADS-WS1 bash script,2013-05-26 00:10:00,
2013-05-25 20:15:00,61.1,41.0,30.29,NNE,21,1.0,-999.0,44,-99.99,,,1.00,ADS-WS1 bash script,2013-05-26 00:15:00,
2013-05-25 20:20:00,60.7,41.0,30.28,NNE,32,4.0,-999.0,44,-99.99,,,1.00,ADS-WS1 bash script,2013-05-26 00:20:00,
2013-05-25 20:25:00,60.5,41.0,30.28,NNE,26,2.0,-999.0,45,-99.99,,,1.00,ADS-WS1 bash script,2013-05-26 00:25:00,
2013-05-25 20:35:00,59.8,41.0,30.28,North,0,2.0,-999.0,46,-99.99,,,1.00,ADS-WS1 bash script,2013-05-26 00:35:00,
2013-05-25 20:40:00,59.3,40.0,30.28,NNE,32,4.0,-999.0,47,-99.99,,,1.00,ADS-WS1 bash script,2013-05-26 00:40:00,
2013-05-25 20:50:00,58.7,40.0,30.28,NE,43,2.0,-999.0,47,-99.99,,,1.00,ADS-WS1 bash script,2013-05-26 00:50:00,
2013-05-25 20:55:00,58.4,39.0,30.28,NNE,29,2.0,-999.0,47,-99.99,,,1.00,ADS-WS1 bash script,2013-05-26 00:55:00,
2013-05-25 21:05:00,57.8,40.0,30.28,North,350,1.0,-999.0,49,-99.99,,,1.00,ADS-WS1 bash script,2013-05-26 01:05:00,
2013-05-25 21:15:00,57.1,40.0,30.29,SE,134,0.0,-999.0,51,-99.99,,,1.00,ADS-WS1 bash script,2013-05-26 01:15:00,
2013-05-25 21:20:00,56.7,41.0,30.29,SE,134,1.0,-999.0,53,-99.99,,,1.00,ADS-WS1 bash script,2013-05-26 01:20:00,
2013-05-25 21:25:00,56.7,41.0,30.30,SE,134,3.0,-999.0,53,-99.99,,,1.00,ADS-WS1 bash script,2013-05-26 01:25:00,
2013-05-25 21:35:00,56.2,40.0,30.30,NE,43,0.0,-999.0,55,-99.99,,,1.00,ADS-WS1 bash script,2013-05-26 01:35:00,
2013-05-25 21:40:00,55.8,40.0,30.30,SE,134,0.0,-999.0,55,-99.99,,,1.00,ADS-WS1 bash script,2013-05-26 01:40:00,
2013-05-25 21:50:00,55.5,41.0,30.30,South,179,3.0,-999.0,57,-99.99,,,1.00,ADS-WS1 bash script,2013-05-26 01:50:00,
2013-05-25 21:55:00,55.1,40.0,30.30,South,179,1.0,-999.0,57,-99.99,,,1.00,ADS-WS1 bash script,2013-05-26 01:55:00,
2013-05-25 22:05:00,54.4,40.0,30.30,South,179,0.0,-999.0,59,-99.99,,,1.00,ADS-WS1 bash script,2013-05-26 02:05:00,
2013-05-25 22:10:00,53.9,40.0,30.30,South,179,0.0,-999.0,60,-99.99,,,1.00,ADS-WS1 bash script,2013-05-26 02:10:00,
2013-05-25 22:20:00,52.8,40.0,30.31,SE,134,0.0,-999.0,62,-99.99,,,1.00,ADS-WS1 bash script,2013-05-26 02:20:00,
2013-05-25 22:25:00,52.4,39.0,30.31,SW,232,0.0,-999.0,63,-99.99,,,1.00,ADS-WS1 bash script,2013-05-26 02:25:00,
2013-05-25 22:30:00,52.1,40.0,30.30,SE,128,1.0,-999.0,64,-99.99,,,1.00,ADS-WS1 bash script,2013-05-26 02:30:00,
2013-05-25 22:35:00,51.9,40.0,30.31,SSE,149,1.0,-999.0,65,-99.99,,,1.00,ADS-WS1 bash script,2013-05-26 02:35:00,
2013-05-25 22:40:00,51.5,40.0,30.31,West,268,0.0,-999.0,65,-99.99,,,1.00,ADS-WS1 bash script,2013-05-26 02:40:00,
2013-05-25 22:45:00,51.2,39.0,30.30,West,268,0.0,-999.0,66,-99.99,,,1.00,ADS-WS1 bash script,2013-05-26 02:45:00,
2013-05-25 22:50:00,51.0,40.0,30.31,NW,313,0.0,-999.0,67,-99.99,,,1.00,ADS-WS1 bash script,2013-05-26 02:50:00,
2013-05-25 22:55:00,50.5,39.0,30.31,NW,313,0.0,-999.0,68,-99.99,,,1.00,ADS-WS1 bash script,2013-05-26 02:55:00,
2013-05-25 23:00:00,50.1,39.0,30.31,NW,313,0.0,-999.0,68,-99.99,,,1.00,ADS-WS1 bash script,2013-05-26 03:00:00,
2013-05-25 23:05:00,49.9,39.0,30.32,NE,43,0.0,-999.0,69,-99.99,,,1.00,ADS-WS1 bash script,2013-05-26 03:05:00,